Time,TemperatureF,DewpointF,PressureIn,WindDirection,WindDirectionDegrees,WindSpeedMPH,WindSpeedGustMPH,Humidity,HourlyPrecipIn,Conditions,Clouds,dailyrainin,SoftwareType,DateUTC
2013-03-06 00:02:00,60.0,54.0,30.06,West,264,2.0,5.0,80,99.99,,,-99.99,,2013-03-06 05:02:00,
2013-03-06 00:11:00,59.0,54.0,30.05,WSW,252,1.0,6.0,82,99.99,,,-99.99,,2013-03-06 05:11:00,
2013-03-06 00:22:00,59.0,54.0,30.05,WSW,252,1.0,6.0,82,99.99,,,-99.99,,2013-03-06 05:22:00,
2013-03-06 00:32:00,60.0,55.0,30.04,West,274,1.0,4.0,84,99.99,,,-99.99,,2013-03-06 05:32:00,
2013-03-06 00:42:00,60.0,55.0,30.04,West,274,1.0,4.0,84,99.99,,,-99.99,,2013-03-06 05:42:00,
2013-03-06 00:52:00,61.0,56.0,30.04,WSW,240,3.0,10.0,85,99.99,,,-99.99,,2013-03-06 05:52:00,
2013-03-06 01:02:00,61.0,57.0,30.03,WSW,255,2.0,5.0,86,99.99,,,-99.99,,2013-03-06 06:02:00,
2013-03-06 01:11:00,61.0,57.0,30.03,WSW,255,2.0,5.0,86,99.99,,,-99.99,,2013-03-06 06:11:00,
2013-03-06 01:22:00,62.0,58.0,30.03,SW,236,3.0,9.0,86,99.99,,,-99.99,,2013-03-06 06:22:00,
2013-03-06 01:32:00,62.0,58.0,30.02,WSW,240,4.0,8.0,87,99.99,,,-99.99,,2013-03-06 06:32:00,
2013-03-06 01:42:00,62.0,58.0,30.02,WSW,240,4.0,8.0,87,99.99,,,-99.99,,2013-03-06 06:42:00,
2013-03-06 01:52:00,62.0,57.0,30.01,SW,236,5.0,10.0,83,99.99,,,-99.99,,2013-03-06 06:52:00,
2013-03-06 02:01:00,62.0,56.0,30.01,WSW,250,6.0,11.0,80,99.99,,,-99.99,,2013-03-06 07:01:00,
2013-03-06 02:11:00,62.0,56.0,30.01,WSW,250,6.0,11.0,80,99.99,,,-99.99,,2013-03-06 07:11:00,
2013-03-06 02:22:00,62.0,55.0,30.00,SW,236,5.0,10.0,79,99.99,,,-99.99,,2013-03-06 07:22:00,
2013-03-06 02:32:00,63.0,-99.9,29.99,WSW,239,5.0,11.0,-999,99.99,,,-99.99,,2013-03-06 07:32:00,
2013-03-06 02:42:00,63.0,-99.9,29.99,WSW,239,5.0,11.0,-999,99.99,,,-99.99,,2013-03-06 07:42:00,
2013-03-06 02:52:00,62.0,-99.9,29.99,West,264,5.0,10.0,-999,99.99,,,-99.99,,2013-03-06 07:52:00,
2013-03-06 03:01:00,62.0,-99.9,29.98,WNW,283,6.0,10.0,-999,99.99,,,-99.99,,2013-03-06 08:01:00,
2013-03-06 03:11:00,62.0,-99.9,29.98,WNW,283,6.0,10.0,-999,99.99,,,-99.99,,2013-03-06 08:11:00,
2013-03-06 03:21:00,62.0,58.0,29.98,West,266,7.0,11.0,86,99.99,,,-99.99,,2013-03-06 08:21:00,
2013-03-06 03:32:00,63.0,62.0,29.97,WSW,242,6.0,11.0,96,99.99,,,-99.99,,2013-03-06 08:32:00,
2013-03-06 03:42:00,63.0,62.0,29.97,WSW,242,6.0,11.0,96,99.99,,,-99.99,,2013-03-06 08:42:00,
2013-03-06 03:52:00,63.0,62.0,29.97,WNW,293,5.0,10.0,98,99.99,,,-99.99,,2013-03-06 08:52:00,
2013-03-06 04:01:00,63.0,63.0,29.97,WSW,250,4.0,9.0,100,99.99,,,-99.99,,2013-03-06 09:01:00,
2013-03-06 04:12:00,63.0,63.0,29.97,WSW,250,4.0,9.0,100,99.99,,,-99.99,,2013-03-06 09:12:00,
2013-03-06 04:21:00,63.0,63.0,29.97,WSW,246,4.0,8.0,100,99.99,,,-99.99,,2013-03-06 09:21:00,
2013-03-06 04:32:00,63.0,63.0,29.96,West,267,5.0,10.0,100,99.99,,,-99.99,,2013-03-06 09:32:00,
2013-03-06 04:42:00,63.0,63.0,29.96,West,267,5.0,10.0,100,99.99,,,-99.99,,2013-03-06 09:42:00,
2013-03-06 04:52:00,63.0,63.0,29.96,West,277,5.0,9.0,100,99.99,,,-99.99,,2013-03-06 09:52:00,
2013-03-06 05:01:00,64.0,64.0,29.97,WNW,284,4.0,8.0,100,99.99,,,-99.99,,2013-03-06 10:01:00,
2013-03-06 05:11:00,64.0,64.0,29.97,WNW,284,4.0,8.0,100,99.99,,,-99.99,,2013-03-06 10:11:00,
2013-03-06 05:22:00,64.0,64.0,29.98,West,267,6.0,12.0,100,99.99,,,-99.99,,2013-03-06 10:22:00,
2013-03-06 05:32:00,64.0,64.0,29.97,West,259,5.0,9.0,100,99.99,,,-99.99,,2013-03-06 10:32:00,
2013-03-06 05:42:00,64.0,64.0,29.97,West,259,5.0,9.0,100,99.99,,,-99.99,,2013-03-06 10:42:00,
2013-03-06 05:52:00,64.0,64.0,29.97,West,271,8.0,13.0,100,99.99,,,-99.99,,2013-03-06 10:52:00,
2013-03-06 06:02:00,64.0,64.0,29.98,West,270,4.0,8.0,100,99.99,,,-99.99,,2013-03-06 11:02:00,
2013-03-06 06:11:00,64.0,64.0,29.98,West,270,4.0,8.0,100,99.99,,,-99.99,,2013-03-06 11:11:00,
2013-03-06 06:22:00,64.0,64.0,29.98,WSW,253,3.0,7.0,100,99.99,,,-99.99,,2013-03-06 11:22:00,
2013-03-06 06:32:00,64.0,64.0,30.00,NNW,330,6.0,16.0,100,99.99,,,-99.99,,2013-03-06 11:32:00,
2013-03-06 06:42:00,64.0,64.0,30.00,NNW,330,6.0,16.0,100,99.99,,,-99.99,,2013-03-06 11:42:00,
2013-03-06 06:52:00,62.0,61.0,30.01,NW,308,9.0,17.0,96,99.99,,,-99.99,,2013-03-06 11:52:00,
2013-03-06 07:02:00,61.0,59.0,30.02,NW,311,8.0,12.0,94,99.99,,,-99.99,,2013-03-06 12:02:00,
2013-03-06 07:11:00,61.0,59.0,30.02,NW,311,8.0,12.0,94,99.99,,,-99.99,,2013-03-06 12:11:00,
2013-03-06 07:22:00,60.0,58.0,30.03,NW,318,9.0,14.0,92,99.99,,,-99.99,,2013-03-06 12:22:00,
2013-03-06 07:33:00,59.0,56.0,30.04,NNW,346,7.0,13.0,91,99.99,,,-99.99,,2013-03-06 12:33:00,
2013-03-06 07:42:00,59.0,56.0,30.04,NNW,346,7.0,13.0,91,99.99,,,-99.99,,2013-03-06 12:42:00,
2013-03-06 07:53:00,58.0,53.0,30.05,NNW,335,8.0,13.0,82,99.99,,,-99.99,,2013-03-06 12:53:00,
2013-03-06 08:02:00,57.0,50.0,30.07,NW,304,8.0,13.0,78,99.99,,,-99.99,,2013-03-06 13:02:00,
2013-03-06 08:12:00,57.0,50.0,30.07,NW,304,8.0,13.0,78,99.99,,,-99.99,,2013-03-06 13:12:00,
2013-03-06 08:22:00,57.0,49.0,30.08,NW,308,8.0,14.0,75,99.99,,,-99.99,,2013-03-06 13:22:00,
2013-03-06 08:32:00,57.0,50.0,30.08,WNW,293,7.0,13.0,76,99.99,,,-99.99,,2013-03-06 13:32:00,
2013-03-06 08:42:00,57.0,50.0,30.08,WNW,293,7.0,13.0,76,99.99,,,-99.99,,2013-03-06 13:42:00,
2013-03-06 08:52:00,54.0,37.0,30.09,North,356,12.0,25.0,53,99.99,,,-99.99,,2013-03-06 13:52:00,
2013-03-06 09:01:00,55.0,36.0,30.10,NNE,24,8.0,16.0,48,99.99,,,-99.99,,2013-03-06 14:01:00,
2013-03-06 09:11:00,55.0,36.0,30.10,NNE,24,8.0,16.0,48,99.99,,,-99.99,,2013-03-06 14:11:00,
2013-03-06 09:22:00,55.0,33.0,30.12,North,10,10.0,19.0,43,99.99,,,-99.99,,2013-03-06 14:22:00,
2013-03-06 09:32:00,56.0,33.0,30.11,NNW,333,9.0,17.0,42,99.99,,,-99.99,,2013-03-06 14:32:00,
2013-03-06 09:42:00,55.0,33.0,30.11,NNE,17,7.0,14.0,43,99.99,,,-99.99,,2013-03-06 14:42:00,
2013-03-06 09:53:00,55.0,33.0,30.11,NNE,17,7.0,14.0,43,99.99,,,-99.99,,2013-03-06 14:53:00,
2013-03-06 10:02:00,56.0,33.0,30.11,NNW,328,8.0,19.0,41,99.99,,,-99.99,,2013-03-06 15:02:00,
2013-03-06 10:11:00,56.0,33.0,30.11,NNW,328,8.0,19.0,41,99.99,,,-99.99,,2013-03-06 15:11:00,
2013-03-06 10:22:00,56.0,31.0,30.11,NW,326,9.0,15.0,39,99.99,,,-99.99,,2013-03-06 15:22:00,
2013-03-06 10:32:00,57.0,34.0,30.11,NNE,27,5.0,12.0,41,99.99,,,-99.99,,2013-03-06 15:32:00,
2013-03-06 10:42:00,57.0,34.0,30.11,NNE,27,5.0,12.0,41,99.99,,,-99.99,,2013-03-06 15:42:00,
2013-03-06 10:52:00,58.0,33.0,30.11,WNW,295,7.0,14.0,39,99.99,,,-99.99,,2013-03-06 15:52:00,
2013-03-06 11:02:00,59.0,33.0,30.11,WNW,301,7.0,14.0,38,99.99,,,-99.99,,2013-03-06 16:02:00,
2013-03-06 11:12:00,59.0,33.0,30.11,WNW,301,7.0,14.0,38,99.99,,,-99.99,,2013-03-06 16:12:00,
2013-03-06 11:21:00,59.0,34.0,30.11,WNW,293,9.0,14.0,39,99.99,,,-99.99,,2013-03-06 16:21:00,
2013-03-06 11:32:00,60.0,35.0,30.10,WNW,291,7.0,16.0,39,99.99,,,-99.99,,2013-03-06 16:32:00,
2013-03-06 11:42:00,60.0,35.0,30.10,WNW,291,7.0,16.0,39,99.99,,,-99.99,,2013-03-06 16:42:00,
2013-03-06 11:52:00,61.0,35.0,30.09,NNW,338,9.0,16.0,38,99.99,,,-99.99,,2013-03-06 16:52:00,
2013-03-06 12:01:00,63.0,36.0,30.09,NNW,328,11.0,20.0,37,99.99,,,-99.99,,2013-03-06 17:01:00,
2013-03-06 12:11:00,63.0,36.0,30.09,NNW,328,11.0,20.0,37,99.99,,,-99.99,,2013-03-06 17:11:00,
2013-03-06 12:22:00,63.0,36.0,30.08,NW,305,9.0,16.0,36,99.99,,,-99.99,,2013-03-06 17:22:00,
2013-03-06 12:32:00,65.0,30.0,30.07,West,267,11.0,19.0,27,99.99,,,-99.99,,2013-03-06 17:32:00,
2013-03-06 12:42:00,65.0,30.0,30.07,West,267,11.0,19.0,27,99.99,,,-99.99,,2013-03-06 17:42:00,
2013-03-06 12:53:00,64.0,31.0,30.06,NNW,340,10.0,18.0,29,99.99,,,-99.99,,2013-03-06 17:53:00,
2013-03-06 13:02:00,65.0,27.0,30.05,NW,322,11.0,19.0,24,99.99,,,-99.99,,2013-03-06 18:02:00,
2013-03-06 13:28:00,66.0,26.0,30.04,WNW,301,12.0,19.0,22,99.99,,,-99.99,,2013-03-06 18:28:00,
2013-03-06 13:42:00,66.0,24.0,30.03,WNW,287,12.0,23.0,20,99.99,,,-99.99,,2013-03-06 18:42:00,
2013-03-06 13:53:00,67.0,16.0,30.02,WNW,302,13.0,24.0,14,99.99,,,-99.99,,2013-03-06 18:53:00,
2013-03-06 14:02:00,66.0,12.0,30.02,West,281,14.0,25.0,12,99.99,,,-99.99,,2013-03-06 19:02:00,
2013-03-06 14:11:00,66.0,12.0,30.02,West,281,14.0,25.0,12,99.99,,,-99.99,,2013-03-06 19:11:00,
2013-03-06 14:22:00,67.0,16.0,30.02,NW,308,11.0,20.0,14,99.99,,,-99.99,,2013-03-06 19:22:00,
2013-03-06 14:32:00,67.0,21.0,30.01,NNW,333,11.0,20.0,17,99.99,,,-99.99,,2013-03-06 19:32:00,
2013-03-06 14:43:00,67.0,21.0,30.01,NNW,333,11.0,20.0,17,99.99,,,-99.99,,2013-03-06 19:43:00,
2013-03-06 14:53:00,68.0,19.0,30.01,NW,304,11.0,21.0,15,99.99,,,-99.99,,2013-03-06 19:53:00,
2013-03-06 15:02:00,67.0,21.0,30.01,North,359,9.0,18.0,17,99.99,,,-99.99,,2013-03-06 20:02:00,
2013-03-06 15:12:00,67.0,21.0,30.01,North,359,9.0,18.0,17,99.99,,,-99.99,,2013-03-06 20:12:00,
2013-03-06 15:22:00,66.0,12.0,30.01,WNW,301,15.0,23.0,12,99.99,,,-99.99,,2013-03-06 20:22:00,
2013-03-06 15:32:00,66.0,19.0,30.01,NW,305,9.0,20.0,16,99.99,,,-99.99,,2013-03-06 20:32:00,
2013-03-06 15:42:00,66.0,19.0,30.01,NW,305,9.0,20.0,16,99.99,,,-99.99,,2013-03-06 20:42:00,
2013-03-06 15:53:00,65.0,15.0,30.01,NW,318,13.0,23.0,14,99.99,,,-99.99,,2013-03-06 20:53:00,
2013-03-06 16:02:00,64.0,8.0,30.01,NW,311,13.0,23.0,11,99.99,,,-99.99,,2013-03-06 21:02:00,
2013-03-06 16:12:00,64.0,8.0,30.01,NW,311,13.0,23.0,11,99.99,,,-99.99,,2013-03-06 21:12:00,
2013-03-06 16:22:00,63.0,6.0,30.01,NW,311,12.0,23.0,10,99.99,,,-99.99,,2013-03-06 21:22:00,
2013-03-06 16:32:00,63.0,6.0,30.01,WNW,288,10.0,18.0,10,99.99,,,-99.99,,2013-03-06 21:32:00,
2013-03-06 16:42:00,63.0,6.0,30.01,WNW,288,10.0,18.0,10,99.99,,,-99.99,,2013-03-06 21:42:00,
2013-03-06 16:52:00,62.0,-3.0,30.01,North,0,13.0,22.0,7,99.99,,,-99.99,,2013-03-06 21:52:00,
2013-03-06 17:02:00,62.0,9.0,30.01,NW,312,11.0,22.0,12,99.99,,,-99.99,,2013-03-06 22:02:00,
2013-03-06 17:11:00,62.0,9.0,30.01,NW,312,11.0,22.0,12,99.99,,,-99.99,,2013-03-06 22:11:00,
2013-03-06 17:22:00,61.0,-1.0,30.02,NW,309,13.0,26.0,8,99.99,,,-99.99,,2013-03-06 22:22:00,
2013-03-06 17:32:00,61.0,4.0,30.02,NW,326,12.0,22.0,10,99.99,,,-99.99,,2013-03-06 22:32:00,
2013-03-06 17:42:00,61.0,4.0,30.02,NW,326,12.0,22.0,10,99.99,,,-99.99,,2013-03-06 22:42:00,
2013-03-06 17:52:00,60.0,1.0,30.02,NW,321,13.0,22.0,9,99.99,,,-99.99,,2013-03-06 22:52:00,
2013-03-06 18:01:00,60.0,20.0,30.02,NW,325,11.0,18.0,21,99.99,,,-99.99,,2013-03-06 23:01:00,
2013-03-06 18:11:00,60.0,20.0,30.02,NW,325,11.0,18.0,21,99.99,,,-99.99,,2013-03-06 23:11:00,
2013-03-06 18:22:00,59.0,22.0,30.03,NNW,345,8.0,14.0,24,99.99,,,-99.99,,2013-03-06 23:22:00,
2013-03-06 18:32:00,59.0,24.0,30.03,WNW,302,8.0,12.0,26,99.99,,,-99.99,,2013-03-06 23:32:00,
2013-03-06 18:42:00,57.0,24.0,30.03,WNW,300,12.0,19.0,28,99.99,,,-99.99,,2013-03-06 23:42:00,
2013-03-06 18:52:00,57.0,24.0,30.03,WNW,300,12.0,19.0,28,99.99,,,-99.99,,2013-03-06 23:52:00,
2013-03-06 19:02:00,56.0,23.0,30.05,WNW,295,9.0,19.0,28,99.99,,,-99.99,,2013-03-07 00:02:00,
2013-03-06 19:11:00,56.0,23.0,30.05,WNW,295,9.0,19.0,28,99.99,,,-99.99,,2013-03-07 00:11:00,
2013-03-06 19:21:00,56.0,23.0,30.06,NNW,332,7.0,14.0,28,99.99,,,-99.99,,2013-03-07 00:21:00,
2013-03-06 19:32:00,55.0,24.0,30.07,WNW,283,8.0,14.0,30,99.99,,,-99.99,,2013-03-07 00:32:00,
2013-03-06 19:42:00,55.0,24.0,30.07,WNW,283,8.0,14.0,30,99.99,,,-99.99,,2013-03-07 00:42:00,
2013-03-06 19:52:00,55.0,-99.9,30.08,NW,322,7.0,11.0,-999,99.99,,,-99.99,,2013-03-07 00:52:00,
2013-03-06 20:01:00,54.0,-37.0,30.09,WNW,293,7.0,13.0,0,99.99,,,-99.99,,2013-03-07 01:01:00,
2013-03-06 20:11:00,54.0,-37.0,30.09,WNW,293,7.0,13.0,0,99.99,,,-99.99,,2013-03-07 01:11:00,
2013-03-06 20:21:00,54.0,28.0,30.09,NNW,330,6.0,10.0,36,99.99,,,-99.99,,2013-03-07 01:21:00,
2013-03-06 20:32:00,53.0,28.0,30.09,NW,314,6.0,10.0,38,99.99,,,-99.99,,2013-03-07 01:32:00,
2013-03-06 20:42:00,53.0,28.0,30.09,NW,314,6.0,10.0,38,99.99,,,-99.99,,2013-03-07 01:42:00,
2013-03-06 20:52:00,53.0,30.0,30.09,NW,319,6.0,9.0,41,99.99,,,-99.99,,2013-03-07 01:52:00,
2013-03-06 21:01:00,53.0,31.0,30.09,WNW,300,5.0,8.0,42,99.99,,,-99.99,,2013-03-07 02:01:00,
2013-03-06 21:11:00,53.0,31.0,30.09,WNW,300,5.0,8.0,42,99.99,,,-99.99,,2013-03-07 02:11:00,
2013-03-06 21:21:00,52.0,30.0,30.11,WNW,297,3.0,5.0,42,99.99,,,-99.99,,2013-03-07 02:21:00,
2013-03-06 21:32:00,52.0,30.0,30.11,WNW,293,4.0,6.0,42,99.99,,,-99.99,,2013-03-07 02:32:00,
2013-03-06 21:41:00,52.0,30.0,30.11,WNW,293,4.0,6.0,42,99.99,,,-99.99,,2013-03-07 02:41:00,
2013-03-06 21:52:00,52.0,30.0,30.11,WNW,293,4.0,6.0,42,99.99,,,-99.99,,2013-03-07 02:52:00,
2013-03-06 22:02:00,51.0,32.0,30.12,NNW,340,3.0,7.0,48,99.99,,,-99.99,,2013-03-07 03:02:00,
2013-03-06 22:12:00,51.0,-99.9,30.14,NW,318,1.0,4.0,-999,99.99,,,-99.99,,2013-03-07 03:12:00,
2013-03-06 22:22:00,51.0,-99.9,30.14,NW,318,1.0,4.0,-999,99.99,,,-99.99,,2013-03-07 03:22:00,
2013-03-06 22:32:00,50.0,-99.9,30.13,NW,322,3.0,6.0,-999,99.99,,,-99.99,,2013-03-07 03:32:00,
2013-03-06 22:42:00,50.0,-99.9,30.13,NW,322,3.0,6.0,-999,99.99,,,-99.99,,2013-03-07 03:42:00,
2013-03-06 22:52:00,50.0,-99.9,30.14,NNW,345,4.0,8.0,-999,99.99,,,-99.99,,2013-03-07 03:52:00,
2013-03-06 23:02:00,50.0,-99.9,30.14,NNW,328,3.0,8.0,-999,99.99,,,-99.99,,2013-03-07 04:02:00,
2013-03-06 23:12:00,50.0,-99.9,30.14,NNW,328,3.0,8.0,-999,99.99,,,-99.99,,2013-03-07 04:12:00,
2013-03-06 23:22:00,51.0,-99.9,30.14,NW,305,3.0,6.0,-999,99.99,,,-99.99,,2013-03-07 04:22:00,
2013-03-06 23:32:00,51.0,-99.9,30.15,NW,311,4.0,8.0,-999,99.99,,,-99.99,,2013-03-07 04:32:00,
2013-03-06 23:42:00,51.0,-99.9,30.15,NW,311,4.0,8.0,-999,99.99,,,-99.99,,2013-03-07 04:42:00,
2013-03-06 23:52:00,50.0,-99.9,30.15,WNW,294,4.0,8.0,-999,99.99,,,-99.99,,2013-03-07 04:52:00,